{"data":{"norad_id":68865,"epoch":"2026-05-24T23:46:22.666368Z","epoch_age_seconds":65931,"freshness":"FRESH","line1":"1 68865U 26095B   26144.99054012  .00050458  00000+0  12990-2 0  9996","line2":"2 68865  51.8863 354.3218 0001048 223.1515 136.9390 15.38733357  4161","mean_motion":15.38733357,"eccentricity":0.0001048,"inclination_deg":51.8863,"raan_deg":354.3218,"arg_perigee_deg":223.1515,"mean_anomaly_deg":136.939,"bstar":0.001299,"rev_number":416,"period_min":93.583465481473,"perigee_km":449.13825224384,"apogee_km":450.5693991209,"semimajor_km":6827.9908256824,"source":"CELESTRAK","updated_at":"2026-05-25T13:38:08.645466Z"}}